Location: Unspecified
(47.6578°N, 23.5640°E)
Time: 13:46:27
(UTC+03:00)

ISS - Pass Details

Date: 02 February 2018
Orbit: 408 x 418 km, 51.6° (Epoch: 17 June)

Event Time Altitude Azimuth Distance (km) Brightness Sun altitude
Rises 20:04:00 0° 293° (WNW) 2,381 1.2 -26.4°
Reaches altitude 10° 20:06:06 10° 294° (WNW) 1,522 0.0 -26.7°
Enters shadow 20:07:36 24° 295° (WNW) 930 -1.4 -27.0°
